User: anonymous   Login
Location: Iola
(37.9240°N, 95.4000°W)
Time: 01:31:14
(UTC-05:00)
Language:

Meteor 2-10 Rocket - Orbit

View from above orbital plane
View from above orbital plane
View from above satellite
View from above satellite

Ground track
Ground track

The orbit data is extracted from the following two-line orbital elements,

1 14453U 83109B   17232.57852719 +.00000032 +00000-0 +81591-5 0  9991
2 14453 081.1657 041.5221 0104179 237.0883 122.0242 14.24677957756626
Epoch (UTC): 20 August 2017 13:53:04
Eccentricity: 0.0104179
inclination: 81.1657°
perigee height: 734 km
apogee height: 884 km
right ascension of ascending node: 41.5221°
argument of perigee: 237.0883°
revolutions per day: 14.24677957
mean anomaly at epoch: 122.0242°
orbit number at epoch: 75662

The dashed part of the orbit path shows where the satellite is in the earth's shadow,  

DLR